SB KEPS @ AMSAT $ORB11230.N 2Line Orbital Elements 11230.AMSAT
HR AMSAT ORBITAL ELEMENTS FOR AMATEUR SATELLITES IN NASA FORMAT FROM WA5QGD FORT WORTH,TX August 18, 2011 Send Subscribe/unsubscribe to KEPS at http://www.amsat.org/mailman/listinfo/keps BID: ORB11230.N
DECODE 2-LINE ELSETS WITH THE FOLLOWING KEY: 1 AAAAAU 00 0 0 BBBBB.BBBBBBBB .CCCCCCCC 00000-0 00000-0 0 DDDZ 2 AAAAA EEE.EEEE FFF.FFFF GGGGGGG HHH.HHHH III.IIII JJ.JJJJJJJJKKKKKZ KEY: A-CATALOGNUM B-EPOCHTIME C-DECAY D-ELSETNUM E-INCLINATION F-RAAN G-ECCENTRICITY H-ARGPERIGEE I-MNANOM J-MNMOTION K-ORBITNUM Z-CHECKSUM
TO ALL RADIO AMATEURS BT
AO-07 1 07530U 74089B 11229.60671153 -.00000027 00000-0 10000-3 0 01588 2 07530 101.3948 233.7282 0011984 157.8563 202.3028 12.53583558681881 FO-29 1 24278U 96046B 11230.76704023 -.00000030 00000-0 22551-5 0 6412 2 24278 098.5565 006.4829 0351360 095.0638 269.0703 13.52964253740920 SO-33 1 25509U 98061B 11229.45695043 .00000117 00000-0 13108-4 0 00353 2 25509 031.4316 257.7645 0353174 057.4326 305.9904 14.28437902669042 RS-22 1 27939U 03042A 11230.77713354 .00000201 00000-0 47249-4 0 5497 2 27939 097.8398 081.7634 0014085 142.1518 218.0681 14.63625585421496 VO-52 1 28650U 05017B 11230.54412709 .00000475 00000-0 65720-4 0 8756 2 28650 097.6364 270.8718 0026101 319.6668 040.2642 14.82143091339983 SO-67 1 35870U 09049F 11230.19425918 .00001275 00000-0 60561-4 0 1349 2 35870 097.2757 271.4789 0002981 132.9870 313.2917 15.20969297106362 HO-68 1 36122U 09072B 11230.71714450 -.00000044 00000-0 00000 0 0 6601 2 36122 100.4103 290.5674 0007796 083.1764 277.0234 13.16287679 80469 UO-11 1 14781U 84021B 11229.93324011 .00000236 00000-0 38140-4 0 06318 2 14781 098.0010 286.4334 0008057 304.4546 055.5903 14.80014272474929 AO-16 1 20439U 90005D 11229.86231710 .00000020 00000-0 23361-4 0 02708 2 20439 098.3889 177.4324 0011033 346.2730 013.8150 14.31933485126442 LO-19 1 20442U 90005G 11230.84039069 -.00000071 00000-0 -10922-4 0 1767 2 20442 098.3521 182.4901 0011584 335.6949 024.3690 14.32157652126767 AO-27 1 22825U 93061C 11230.73182255 -.00000032 00000-0 42848-5 0 8916 2 22825 098.5351 173.9078 0009331 090.2312 269.9933 14.29358205933128 IO-26 1 22826U 93061D 11229.87992337 .00000041 00000-0 32906-4 0 06639 2 22826 098.5278 173.5265 0010128 087.0525 273.1816 14.29621789933124 GO-32 1 25397U 98043D 11229.70908106 .00000089 00000-0 57456-4 0 05585 2 25397 098.3287 218.9943 0002324 093.5499 266.5937 14.23216168680715 NO-44 1 26931U 01043C 11229.88322632 .00000136 00000-0 85257-4 0 08291 2 26931 067.0514 184.5503 0005762 254.1281 105.9200 14.29673826515742 SO-50 1 27607U 02058C 11230.23854360 .00000141 00000-0 43461-4 0 5438 2 27607 064.5589 139.1099 0077705 308.0158 051.3947 14.71792158465227 CO-55 1 27844U 03031E 11229.58429705 .00000091 00000-0 62195-4 0 01794 2 27844 098.7066 237.3960 0010457 025.6486 334.5209 14.20833486421632 CO-57 1 27848U 03031J 11229.53728220 .00000087 00000-0 60747-4 0 01287 2 27848 098.7150 236.5606 0010401 031.5773 328.6021 14.20610697421578 AO-51 1 28375U 04025K 11230.47502775 .00000047 00000-0 27153-4 0 488 2 28375 098.1037 205.6637 0082802 241.5762 117.7070 14.40773514375038 CP3 1 31129U 07012N 11229.66526802 .00000195 00000-0 55345-4 0 09470 2 31129 097.8962 250.3222 0100656 351.0308 008.9050 14.52538518229763 CO-65 1 32785U 08021C 11229.65221563 .00000022 00000-0 94325-5 0 00725 2 32785 097.8435 292.3555 0014625 340.2949 019.7694 14.82077217178644 PRISM 1 33493U 09002B 11230.75768352 .00000801 00000-0 10815-3 0 8775 2 33493 098.1319 000.3111 0019252 195.4559 164.6076 14.81842312138789 SOHLA-1 1 33496U 09002E 11229.93942442 .00000116 00000-0 27724-4 0 05022 2 33496 098.0849 339.1612 0005796 293.6257 066.4340 14.69643972137556 TISAT-1 1 36799U 10035E 11230.78365942 .00000532 00000-0 76176-4 0 1515 2 36799 098.0973 299.6442 0016629 076.1294 284.1755 14.80661705 59577 STUDSAT 1 36801U 10035G 11229.83929961 .00001380 00000-0 18548-3 0 2274 2 36801 098.1045 298.5993 0014722 068.0099 292.2675 14.80877824 59422 OOREOS 1 37224U 10062C 11153.29456974 .00000492 00000-0 77478-4 0 01796 2 37224 071.9726 071.8135 0020315 307.7637 052.1684 14.77036357028673 FO-69 1 37227U 0 11230.45213982 .00000136 00000-0 27453-4 0 01102 2 37227 071.9685 261.9722 0016980 171.3961 188.7475 14.76625575018513 NANOSALD 1 37361U 0 11230.28098225 .00079687 00000-0 36049-2 0 03314 2 37361 071.9704 249.7190 0027311 266.3350 093.3370 15.20171657031498 FO-70 1 37380U 0 11230.47569632 .00000100 00000-0 22360-4 0 02452 2 37380 071.9723 262.1051 0017478 168.1486 192.0090 14.76390289040059 NOAA-10 1 16969U 86073A 11229.96262727 .00000053 00000-0 39458-4 0 06078 2 16969 098.6151 258.9010 0013025 047.2666 312.9610 14.27472925296462 NOAA-11 1 19531U 88089A 11229.86396637 .00000243 00000-0 14804-3 0 06058 2 19531 098.7520 316.1576 0011567 016.2791 343.8751 14.14921998181477 NOAA-12 1 21263U 91032A 11229.98489065 .00000069 00000-0 47754-4 0 01159 2 21263 098.7511 247.7196 0012911 011.7088 348.4389 14.25731701053213 MET-3/5 1 21655U 91056A 11229.89630386 .00000051 00000-0 10000-3 0 01877 2 21655 082.5601 007.1649 0013661 009.0534 351.0872 13.17029189961843 MET-2/21 1 22782U 93055A 11230.73461908 .00000040 00000-0 22956-4 0 1790 2 22782 082.5459 273.2572 0020983 284.9043 074.9787 13.83660268907209 OKEAN-4 1 23317U 94066A 11230.77432120 .00000341 00000-0 38834-4 0 6416 2 23317 082.5444 314.6975 0020115 273.3413 086.5500 14.83126637909825 NOAA-14 1 23455U 94089A 11229.95907938 .00000024 00000-0 36111-4 0 05969 2 23455 098.8495 311.9744 0010215 102.3405 257.8908 14.13828340857808 NOAA-15 1 25338U 98030A 11229.81698332 .00000027 00000-0 30150-4 0 09213 2 25338 098.6593 215.1306 0009673 274.9470 085.0606 14.24941399689508 RESURS 1 25394U 98043A 11229.93031414 .00000023 00000-0 27732-4 0 08840 2 25394 098.3027 229.5601 0002456 059.8375 300.3048 14.24237157681091 FENGYUN1 1 25730U 99025A 11229.89426714 .00000421 00000-0 26855-3 0 04001 2 25730 098.8207 189.7428 0023306 138.1327 222.1634 14.08732930631750 OKEAN-0 1 25860U 99039A 11229.94412143 .00000097 00000-0 22275-4 0 04155 2 25860 097.8889 194.7111 0001492 100.0994 260.0381 14.73816155649757 NOAA-16 1 26536U 00055A 11229.83980417 .00000075 00000-0 65554-4 0 04038 2 26536 099.1360 261.6245 0010086 216.0196 144.0259 14.12638447562062 NOAA-17 1 27453U 02032A 11229.71558948 .00000233 00000-0 11881-3 0 03905 2 27453 098.3739 266.5888 0011246 333.7664 026.2957 14.24302611475417 NOAA-18 1 28654U 05018A 11229.77101741 .00000412 00000-0 25182-3 0 08696 2 28654 099.0002 181.0840 0013631 293.6844 066.2900 14.11504243321610 NOAA-19 1 33591U 09005A 11229.78192099 .00000169 00000-0 11789-3 0 00609 2 33591 098.8284 168.9069 0014000 158.2323 201.9523 14.11194044130072 HUBBLE 1 20580U 90037B 11228.54174769 .00000669 00000-0 37863-4 0 8183 2 20580 028.4721 342.1720 0003387 048.1642 311.9135 15.01456292968737 ISS 1 25544U 98067A 11230.85663396 .00009123 00000-0 11465-3 0 9134 2 25544 051.6381 205.3228 0013017 091.4932 351.4033 15.60429688730691 CO-58 1 28895U 05043F 11229.67184915 .00000099 00000-0 29858-4 0 09523 2 28895 097.9563 103.6567 0018604 031.3359 328.8959 14.60148478309216 FALCON 1 30776U 07006E 11229.68264524 .00001192 00000-0 85636-4 0 1513 2 30776 035.4349 333.0029 0001840 288.8791 071.1726 15.04833451244311 MAST 1 31126U 07012K 11230.66861917 .00000126 00000-0 38786-4 0 2374 2 31126 097.8932 254.3576 0094201 336.9890 022.7105 14.53786447230167 CAPE1 1 31130U 07012P 11229.61068241 .00000150 00000-0 44899-4 0 02527 2 31130 097.8957 250.0363 0102181 351.3200 008.6227 14.52441092229551 COMPASS 1 32787U 08021E 11229.63127848 .00000895 00000-0 11778-3 0 00699 2 32787 097.8423 292.2919 0015362 340.1555 019.9009 14.82543068178663 AAUSAT2 1 32788U 08021F 11230.66684134 .00000569 00000-0 76931-4 0 580 2 32788 097.8420 293.5514 0014699 337.4626 022.5956 14.82735668178835 DO-64 1 32789U 08021G 11229.91302591 .00000888 00000-0 11493-3 0 00755 2 32789 097.8529 293.9384 0014782 337.6535 022.4012 14.83270551178736 CO-66 1 32791U 08021J 11230.80880714 .00000683 00000-0 92066-4 0 621 2 32791 097.8428 293.3668 0015532 336.0488 023.9985 14.82215693178785 RS-30 1 32953U 08025A 11230.68727641 .00000010 00000-0 00000 0 0 64 2 32953 082.5050 123.8788 0017693 251.5350 108.3808 12.43014418146858 TACSAT-3 1 35001U 09028A 11230.81534807 .00014104 00000-0 24035-3 0 6715 2 35001 040.4534 151.9102 0022527 316.0200 043.8827 15.50733619126809 PHARMSAT 1 35002U 09028B 11229.96789205 .00010371 00000-0 18254-3 0 06262 2 35002 040.4691 155.2346 0024304 317.6438 042.2519 15.49986436126699 HAWKSAT1 1 35003U 09028C 11229.92207572 .00100234 00000-0 64699-3 0 07275 2 35003 040.4485 114.7752 0017999 327.5695 032.4106 15.74765462127134 CP6 1 35004U 09028D 11230.84058257 .00332918 48388-4 89932-3 0 7350 2 35004 040.4479 093.7447 0016327 319.6094 040.3527 15.93182378127432 METEOR-M 1 35865U 09049A 11230.71134903 .00000176 00000-0 10000-3 0 6483 2 35865 098.7019 285.0135 0002160 189.6792 170.4344 14.21841232 99478 RS-38 1 35869U 09049E 11230.21113401 .00000177 00000-0 10000-3 0 6337 2 35869 098.6970 284.5512 0004319 202.5903 157.5074 14.22018850 99410 ARISSAT1 1 37772U 98067CK 11230.78515973 .00024582 00000-0 28929-3 0 454 2 37772 051.6391 205.6265 0013359 095.0809 332.3458 15.61165345 2266 /EX